Stanley, ND

12:54 AM CDT on September 30, 2016 (GMT -0500)
Stanley

Weather History for K08D - February, 2014

Change the Weather History Date:

Saturday, February 8, 2014

  Actual Average (KMOT) Record (KMOT)
Temperature  
Mean Temperature -3 °F 15 °F  
Max Temperature 5 °F 24 °F 53 °F (2000)
Min Temperature -11 °F 7 °F -39 °F (1899)
Degree Days  
Heating Degree Days 68 50  
Month to date heating degree days 405  
Since 1 July heating degree days 5637  
Moisture  
Dew Point -8 °F    
Average Humidity 79    
Maximum Humidity 85    
Minimum Humidity 71    
Precipitation  
Precipitation 0.00 in 0.02 in 0.11 in (1974)
Month to date precipitation 0.11  
Year to date precipitation 0.62  
Sea Level Pressure  
Sea Level Pressure 30.06 in    
Wind  
Wind Speed 4 mph (NNW)    
Max Wind Speed 13 mph    
Max Gust Speed -    
Visibility 10 miles    
Events Snow    
T = Trace of Precipitation, MM = Missing Value Source: NWS Daily Summary

Daily Weather History Graph

Daily Weather History Graph

Search for Another Location

Airport or City:

Trip Planner

Search our weather history database for the weather conditions in past years. The results will help you decide how hot, cold, wet, or windy it might be!

Date:

Astronomy

Feb. 08, 2014 Rise Set
Actual Time 8:07 AM CST 6:00 PM CST
Civil Twilight 7:35 AM CST 6:33 PM CST
Nautical Twilight 6:58 AM CST 7:10 PM CST
Astronomical Twilight 6:21 AM CST 7:46 PM CST
Moon 12:48 PM CST (2/8) 3:29 AM CST (2/8)
Length of Visible Light 10h 58m
Length of Day
9h 52m
Waxing Gibbous, 69% of the Moon is Illuminated
Feb 8
Waxing Gibbous
Feb 14
Full
Feb 22
Last Quarter
Mar 1
New
Mar 8
First Quarter

Hourly Weather History & Observations

Time (CST) Temp. Windchill Dew Point Humidity Pressure Visibility Wind Dir Wind Speed Gust Speed Precip Events Conditions
12:15 AM -9.4 °F - -13.0 °F 84% 29.90 in 10.0 mi Calm Calm - N/A   Partly Cloudy
12:35 AM -9.4 °F - -13.0 °F 84% 29.89 in 10.0 mi Calm Calm - N/A   Scattered Clouds
12:55 AM -7.6 °F - - N/A% 29.89 in 10.0 mi Calm Calm - N/A   Scattered Clouds
1:15 AM -7.6 °F -18.8 °F -11.2 °F 84% 29.89 in 10.0 mi NNE 4.6 mph - N/A   Clear
1:35 AM -7.6 °F - -13.0 °F 77% 29.89 in 10.0 mi Calm Calm - N/A   Partly Cloudy
1:55 AM -9.4 °F - -13.0 °F 84% 29.90 in 10.0 mi Calm Calm - N/A   Partly Cloudy
2:15 AM -11.2 °F - -16.6 °F 77% 29.90 in 10.0 mi Calm Calm - N/A   Partly Cloudy
2:35 AM -11.2 °F - -16.6 °F 77% 29.90 in 10.0 mi Calm Calm - N/A   Mostly Cloudy
2:55 AM -9.4 °F - -14.8 °F 77% 29.90 in 10.0 mi Calm Calm - N/A   Overcast
3:15 AM -9.4 °F - -13.0 °F 84% 29.91 in 10.0 mi Calm Calm - N/A   Mostly Cloudy
3:35 AM -7.6 °F - -13.0 °F 77% 29.91 in 10.0 mi Calm Calm - N/A   Mostly Cloudy
3:55 AM -5.8 °F -14.5 °F -11.2 °F 77% 29.92 in 10.0 mi North 3.5 mph - N/A   Overcast
4:15 AM -4.0 °F - -9.4 °F 78% 29.92 in 10.0 mi Calm Calm - N/A   Overcast
4:35 AM -2.2 °F -12.5 °F -7.6 °F 78% 29.92 in 10.0 mi North 4.6 mph - N/A   Overcast
4:55 AM -2.2 °F -14.2 °F -7.6 °F 78% 29.93 in 10.0 mi NNE 5.8 mph - N/A   Overcast
5:15 AM -2.2 °F - -7.6 °F 78% 29.93 in 10.0 mi Calm Calm - N/A   Overcast
5:35 AM -2.2 °F -12.5 °F -7.6 °F 78% 29.93 in 10.0 mi NNE 4.6 mph - N/A   Overcast
5:55 AM -4.0 °F -12.4 °F -9.4 °F 78% 29.94 in 10.0 mi NE 3.5 mph - N/A   Overcast
6:15 AM -2.2 °F - -7.6 °F 78% 29.94 in 10.0 mi Calm Calm - N/A   Overcast
6:35 AM -2.2 °F -12.5 °F -9.4 °F 71% 29.94 in 10.0 mi NE 4.6 mph - N/A   Overcast
6:55 AM -2.2 °F -14.2 °F -7.6 °F 78% 29.93 in 10.0 mi NE 5.8 mph - N/A   Overcast
7:15 AM -4.0 °F -16.3 °F -9.4 °F 78% 29.94 in 10.0 mi NE 5.8 mph - N/A   Overcast
7:35 AM -4.0 °F -14.6 °F -9.4 °F 78% 29.94 in 10.0 mi NE 4.6 mph - N/A   Overcast
7:55 AM -4.0 °F -16.3 °F -9.4 °F 78% 29.96 in 10.0 mi NNE 5.8 mph - N/A   Overcast
8:15 AM -4.0 °F -14.6 °F -9.4 °F 78% 29.96 in 10.0 mi NNE 4.6 mph - N/A   Partly Cloudy
8:35 AM -4.0 °F -17.8 °F -7.6 °F 85% 29.97 in 10.0 mi NNE 6.9 mph - N/A   Clear
8:55 AM -2.2 °F -12.5 °F -7.6 °F 78% 29.98 in 10.0 mi North 4.6 mph - N/A   Clear
9:15 AM -4.0 °F -14.6 °F -9.4 °F 78% 30.00 in 10.0 mi North 4.6 mph - N/A   Clear
9:35 AM -4.0 °F -14.6 °F -9.4 °F 78% 30.01 in 10.0 mi North 4.6 mph - N/A   Clear
9:55 AM -2.2 °F -10.4 °F -7.6 °F 78% 30.02 in 10.0 mi North 3.5 mph - N/A   Clear
10:15 AM -0.4 °F -8.3 °F -7.6 °F 72% 30.03 in 10.0 mi North 3.5 mph - N/A   Mostly Cloudy
10:35 AM -0.4 °F -12.0 °F -7.6 °F 72% 30.04 in 10.0 mi NNW 5.8 mph - N/A   Overcast
10:55 AM -0.4 °F -14.7 °F -5.8 °F 78% 30.05 in 10.0 mi North 8.1 mph - N/A   Overcast
11:15 AM -0.4 °F -13.4 °F -5.8 °F 78% 30.06 in 10.0 mi North 6.9 mph - N/A   Mostly Cloudy
11:35 AM -0.4 °F -13.4 °F -5.8 °F 78% 30.06 in 10.0 mi North 6.9 mph - N/A   Scattered Clouds
11:55 AM -0.4 °F -13.4 °F -5.8 °F 78% 30.07 in 10.0 mi NNW 6.9 mph - N/A   Scattered Clouds
12:15 PM 1.4 °F -12.5 °F -4.0 °F 78% 30.08 in 10.0 mi North 8.1 mph - N/A   Clear
12:35 PM 1.4 °F -15.3 °F -4.0 °F 78% 30.08 in 10.0 mi North 11.5 mph - N/A   Clear
12:55 PM 1.4 °F -15.3 °F -4.0 °F 78% 30.07 in 10.0 mi North 11.5 mph - N/A   Clear
1:15 PM 1.4 °F -15.3 °F -4.0 °F 78% 30.08 in 10.0 mi North 11.5 mph - N/A   Clear
1:35 PM 1.4 °F -15.3 °F -2.2 °F 85% 30.08 in 10.0 mi North 11.5 mph - N/A   Clear
1:55 PM 3.2 °F -13.1 °F -2.2 °F 78% 30.08 in 10.0 mi North 11.5 mph - N/A   Clear
2:15 PM 5.0 °F -10.8 °F -2.2 °F 72% 30.09 in 10.0 mi North 11.5 mph - N/A   Clear
2:35 PM 5.0 °F -10.0 °F -2.2 °F 72% 30.09 in 10.0 mi North 10.4 mph - N/A   Clear
2:55 PM 5.0 °F -10.0 °F -2.2 °F 72% 30.10 in 10.0 mi North 10.4 mph - N/A   Clear
3:15 PM 5.0 °F -11.6 °F -2.2 °F 72% 30.12 in 10.0 mi NNW 12.7 mph - N/A   Partly Cloudy
3:35 PM 3.2 °F -13.1 °F -2.2 °F 78% 30.12 in 10.0 mi North 11.5 mph - N/A   Mostly Cloudy
3:55 PM 1.4 °F -16.1 °F -2.2 °F 85% 30.13 in 10.0 mi North 12.7 mph - N/A   Partly Cloudy
4:15 PM 3.2 °F -13.1 °F -2.2 °F 78% 30.13 in 10.0 mi NNW 11.5 mph - N/A Snow Light Snow
4:35 PM 3.2 °F -13.9 °F -2.2 °F 78% 30.14 in 10.0 mi North 12.7 mph - N/A   Scattered Clouds
4:55 PM 3.2 °F -13.9 °F -2.2 °F 78% 30.15 in 10.0 mi North 12.7 mph - N/A Snow Light Snow
5:15 PM 1.4 °F -15.3 °F -4.0 °F 78% 30.16 in 10.0 mi NNW 11.5 mph - N/A Snow Light Snow
5:35 PM 1.4 °F -13.5 °F -4.0 °F 78% 30.16 in 10.0 mi NNW 9.2 mph - N/A   Partly Cloudy
5:55 PM -0.4 °F -14.7 °F -4.0 °F 85% 30.17 in 10.0 mi NNW 8.1 mph - N/A   Mostly Cloudy
6:15 PM -0.4 °F -13.4 °F -4.0 °F 85% 30.19 in 10.0 mi NW 6.9 mph - N/A   Overcast
6:35 PM -0.4 °F -13.4 °F -4.0 °F 85% 30.19 in 10.0 mi NNW 6.9 mph - N/A   Overcast
6:55 PM -0.4 °F -13.4 °F -5.8 °F 78% 30.20 in 10.0 mi NW 6.9 mph - N/A   Overcast
7:15 PM -2.2 °F -15.6 °F -7.6 °F 78% 30.21 in 10.0 mi NW 6.9 mph - N/A   Overcast
7:35 PM -2.2 °F -15.6 °F -7.6 °F 78% 30.22 in 10.0 mi NW 6.9 mph - N/A   Overcast
7:55 PM -2.2 °F -18.0 °F -7.6 °F 78% 30.22 in 10.0 mi NW 9.2 mph - N/A   Overcast
8:15 PM -2.2 °F -18.9 °F -7.6 °F 78% 30.22 in 10.0 mi NW 10.4 mph - N/A Snow Light Snow
8:35 PM -2.2 °F -18.9 °F -7.6 °F 78% 30.23 in 10.0 mi NW 10.4 mph - N/A Snow Light Snow
8:55 PM -2.2 °F -19.9 °F -7.6 °F 78% 30.24 in 10.0 mi NW 11.5 mph - N/A Snow Light Snow
9:15 PM -4.0 °F -20.2 °F -7.6 °F 85% 30.24 in 10.0 mi NW 9.2 mph - N/A   Scattered Clouds
9:35 PM -4.0 °F -19.0 °F -9.4 °F 78% 30.24 in 10.0 mi NW 8.1 mph - N/A   Mostly Cloudy
9:55 PM -5.8 °F -22.4 °F -9.4 °F 84% 30.25 in 10.0 mi WNW 9.2 mph - N/A   Partly Cloudy
10:15 PM -5.8 °F -19.9 °F -11.2 °F 77% 30.25 in 10.0 mi WNW 6.9 mph - N/A   Clear
10:35 PM -7.6 °F -20.6 °F -11.2 °F 84% 30.25 in 10.0 mi NW 5.8 mph - N/A   Mostly Cloudy
10:55 PM -7.6 °F -20.6 °F -11.2 °F 84% 30.26 in 10.0 mi West 5.8 mph - N/A   Mostly Cloudy
11:15 PM -7.6 °F -20.6 °F -13.0 °F 77% 30.26 in 10.0 mi WNW 5.8 mph - N/A   Partly Cloudy
11:35 PM -7.6 °F -20.6 °F -13.0 °F 77% 30.26 in 10.0 mi NW 5.8 mph - N/A   Clear
11:55 PM -7.6 °F -22.1 °F -13.0 °F 77% 30.25 in 10.0 mi NW 6.9 mph - N/A   Scattered Clouds